[[{"header":{"parameterUnit":"m.s-1","parameterCategory":1,"la1":30.2991,"la2":30.254,"lo1":-89.0895,"lo2":-89.0444,"dy":0.0017,"dx":0.0017,"nx":28,"ny":28,"refTime":"2024-02-07T03:00:00:Z","depth":0,"parameterNumber":2,"parameterNumberName":"U-component_of_WINDS"},"data":[0,0,0,0,0,0,0,0,0,0,0,0,0,0,0,0,0,0,0,0,0,0,0,0,0,0,0,0,0,0,0,0,0,0,0,0,0,0,0,0,0,0,0,0,0,0,0,0,0,0,0,0,0,0,0,0,0,0,-1.8789,-1.8789,0,-1.8825,-1.8825,-1.8825,-1.8756,-1.8753,-1.8751,-1.8749,-1.8788,-1.8791,-1.8794,0,0,0,0,0,0,0,0,0,0,0,0,0,-1.8662,-1.8665,-1.8789,-1.8789,-1.8789,-1.8825,-1.8825,-1.8826,-1.8756,-1.8753,-1.875,-1.8748,-1.8787,-1.8791,-1.8795,0,0,0,0,0,0,0,0,0,0,0,0,0,-1.871,-1.8666,-1.8789,-1.8759,-1.8757,-1.8824,-1.8825,-1.8826,-1.8757,-1.8753,-1.875,-1.8746,-1.8786,-1.8791,-1.8795,-1.8894,0,0,-1.881,-1.8812,0,0,0,0,0,0,0,0,-1.8707,-1.8714,-1.8763,-1.8761,-1.8759,-1.8782,-1.8795,-1.8849,-1.8757,-1.8757,-1.8749,-1.8745,-1.8789,-1.8793,-1.8808,-1.8896,-1.8898,-1.881,-1.8813,-1.8815,-1.8817,0,0,0,0,0,0,0,-1.8704,-1.8712,-1.8803,-1.8764,-1.8761,-1.8745,-1.8748,-1.8805,-1.8792,-1.8756,-1.8751,-1.8757,-1.8787,-1.8803,-1.8808,-1.8898,-1.881,-1.8814,-1.8817,-1.8819,-1.907,-1.9074,0,0,0,0,0,0,-1.8704,-1.871,-1.8802,-1.8804,-1.8724,-1.875,-1.8753,-1.8778,-1.8791,-1.879,-1.8759,-1.8753,-1.8797,-1.8803,-1.8809,-1.8927,-1.8815,-1.882,-1.8823,-1.9067,-1.9071,-1.9075,0,0,0,0,0,0,-1.8701,-1.8713,-1.88,-1.8756,-1.8766,-1.8756,-1.8784,-1.8781,-1.8797,-1.8793,-1.8791,-1.8778,-1.8794,-1.8803,-1.8874,-1.8927,-1.8822,-1.8826,-1.9062,-1.9068,-1.9073,-1.9162,0,0,0,0,0,0,-1.8698,-1.8712,-1.8749,-1.8757,-1.8768,-1.8864,-1.8788,-1.8784,-1.8805,-1.8797,-1.881,-1.8809,-1.8792,-1.8867,-1.8878,-1.8932,-1.883,-1.9057,-1.9065,-1.9071,-1.9155,-1.917,-1.9184,0,0,0,0,0,-1.8694,-1.8773,-1.8751,-1.8763,-1.8814,-1.8867,-1.8873,-1.8852,-1.8809,-1.8847,-1.8845,-1.8809,-1.8919,-1.8875,-1.8887,-1.8943,-1.9054,-1.9063,-1.9071,-1.9148,-1.9167,-1.9184,0,0,0,0,0,0,-1.8773,-1.8774,-1.875,-1.8834,-1.8851,-1.8855,-1.8902,-1.8872,-1.8902,-1.8894,-1.8866,-1.887,-1.8947,-1.8952,-1.8902,-1.904,-1.898,-1.8991,-1.9034,-1.9052,-1.9067,-1.9064,-1.8834,0,0,0,0,0,-1.88,-1.8842,-1.884,-1.8915,-1.8925,-1.8912,-1.8934,-1.8916,-1.8932,-1.894,-1.8943,-1.8961,-1.9,-1.9026,-1.9061,-1.9154,-1.9157,-1.9199,-1.9214,-1.9226,-1.9236,-1.9287,-1.9306,-1.9103,-1.9103,-1.9103,0,0,-1.8857,-1.8862,-1.8891,-1.8931,-1.8942,-1.8987,-1.8918,-1.8969,-1.9002,-1.8947,-1.9015,-1.9018,-1.9036,-1.9119,-1.9156,-1.9126,-1.9293,-1.9237,-1.9246,-1.925,-1.9298,-1.9317,-1.9334,-1.9109,-1.9108,-1.9107,0,0,-1.8983,-1.8991,-1.9055,-1.9067,-1.9084,-1.9075,-1.909,-1.9099,-1.9099,-1.9165,-1.9125,-1.9165,-1.9232,-1.9247,-1.9264,-1.9396,-1.9365,-1.9409,-1.9486,-1.9535,-1.9551,-1.9565,-1.9614,-1.9631,-1.9419,-1.9419,-1.9419,0,-1.9052,-1.9117,-1.9091,-1.9144,-1.9164,-1.9115,-1.918,-1.9193,-1.9222,-1.9236,-1.9202,-1.9285,-1.9294,-1.9381,-1.9413,-1.9427,-1.9445,-1.9408,-1.9551,-1.9565,-1.9577,-1.9623,-1.9641,-1.9424,-1.9424,-1.9423,-1.9423,0,-1.9202,-1.9248,-1.9297,-1.9325,-1.935,-1.9408,-1.9392,-1.942,-1.94,-1.9394,-1.9464,-1.9473,-1.9509,-1.9528,-1.9509,-1.9612,-1.9593,-1.9555,-1.9494,-1.9603,-1.9645,-1.9662,-1.9432,-1.943,-1.9429,-1.9427,0,0,-1.938,-1.9392,-1.9411,-1.9424,-1.9439,-1.9474,-1.9531,-1.9566,-1.9592,-1.9613,-1.966,-1.9718,-1.9683,-1.9702,-1.9684,-1.9727,-1.9833,-1.9684,-1.9684,-1.9713,-1.9949,-1.9978,-1.9999,-1.9811,-1.9815,-1.9817,-1.9947,0,-1.9507,-1.9604,-1.9582,-1.9678,-1.9721,-1.9675,-1.9725,-1.974,-1.9736,-1.9773,-1.9769,-1.9811,-1.9761,-1.9772,-1.9813,-1.9812,-1.988,-1.9802,-1.9857,-1.9859,-1.9855,-2.0021,-2.0052,-2.0174,-1.9964,-1.9966,-1.9969,0,-1.9668,-1.9694,-1.9795,-1.9803,-1.9821,-1.9865,-1.9896,-1.9931,-1.9948,-1.9942,-1.9963,-1.9937,-1.9994,-1.9931,-2.001,-1.9957,-1.9978,-1.9981,-1.9985,-1.9991,-1.9922,-2.0032,-2.0213,-2.0232,-1.9994,-1.9992,-1.999,0,-1.979,-1.985,-1.9918,-1.993,-1.9942,-1.9975,-1.9981,-1.9994,-2.0017,-2.0044,-2.0058,-2.0092,-2.0111,-2.0138,-2.0121,-2.0077,-2.0204,-2.0139,-2.0202,-2.0202,-2.0232,-2.023,-2.042,-2.0243,-2.0243,-2.0242,-2.0242,0,-1.9934,-1.9998,-1.9973,-2.0016,-2.0086,-2.006,-2.013,-2.0131,-2.0143,-2.0185,-2.0147,-2.0188,-2.0163,-2.0202,-2.0189,-2.0257,-2.0266,-2.0264,-2.026,-2.0268,-2.0268,-2.0282,-2.0274,-2.0247,-2.0246,-2.0245,-2.0244,0,-2.0083,-2.0069,-2.014,-2.0145,-2.0148,-2.0199,-2.0204,-2.0243,-2.0237,-2.0291,-2.0302,-2.0292,-2.0336,-2.0321,-2.0368,-2.036,-2.0447,-2.0431,-2.0441,-2.0438,-2.0501,-2.0496,-2.0707,-2.0734,-2.0539,-2.0541,-2.0543,0,-2.0177,-2.0224,-2.0234,-2.0259,-2.0268,-2.0309,-2.0332,-2.0308,-2.0334,-2.0356,-2.0394,-2.0434,-2.0465,-2.0537,-2.0534,-2.057,-2.0556,-2.0628,-2.0561,-2.0568,-2.0559,-2.0557,-2.0562,-2.0641,-2.0644,-2.0646,-2.0647,0,-2.0345,-2.0336,-2.037,-2.0402,-2.043,-2.0454,-2.0475,-2.0498,-2.0475,-2.0506,-2.055,-2.0574,-2.0622,-2.0663,-2.0695,-2.0702,-2.0672,-2.0668,-2.0684,-2.0694,-2.0698,-2.0698,-2.0479,-2.0663,-2.0662,-2.066,-2.066,-2.0659,-2.047,-2.0511,-2.0524,-2.0563,-2.0576,-2.0597,-2.0634,-2.0632,-2.0668,-2.0705,-2.0688,-2.0739,-2.0755,-2.0795,-2.0807,-2.0847,-2.0819,-2.0843,-2.0849,-2.0856,-2.0865,-2.069,-2.0852,-2.0852,-2.0851,-2.0851,-2.0851,0,-2.0638,-2.0644,-2.068,-2.071,-2.0741,-2.0708,-2.073,-2.0758,-2.0804,-2.082,-2.0851,-2.0902,-2.0941,-2.0942,-2.0978,-2.1011,-2.0998,-2.1021,-2.1019,-2.1022,-2.0886,-2.0869,-2.1031,-2.1031,-2.1031,-2.1031,-2.1031,-2.1031,-2.0729,-2.0796,-2.0788,-2.0862,-2.0867,-2.0917,-2.0932,-2.0951,-2.0964,-2.1022,-2.1054,-2.1054,-2.1064,-2.1102,-2.1136,-2.1135,-2.1152,-2.1181,-2.1175,-2.1049,-2.1031,-2.1014,-2.0998,-2.1184,-2.1184,-2.1307,-2.1308,-2.1309]},{"header":{"parameterUnit":"m.s-1","parameterCategory":1,"la1":30.2991,"la2":30.254,"lo1":-89.0895,"lo2":-89.0444,"dy":0.0017,"dx":0.0017,"nx":28,"ny":28,"refTime":"2024-02-07T03:00:00:Z","depth":0,"parameterNumber":3,"parameterNumberName":"V-component_of_WINDS"},"data":[0,0,0,0,0,0,0,0,0,0,0,0,0,0,0,0,0,0,0,0,0,0,0,0,0,0,0,0,0,0,0,0,0,0,0,0,0,0,0,0,0,0,0,0,0,0,0,0,0,0,0,0,0,0,0,0,0,0,-2.6574,-2.6574,0,-2.6597,-2.6598,-2.6598,-2.6563,-2.6561,-2.656,-2.6559,-2.6581,-2.6582,-2.6584,0,0,0,0,0,0,0,0,0,0,0,0,0,-2.6496,-2.6497,-2.6574,-2.6574,-2.6574,-2.6597,-2.6598,-2.6598,-2.6563,-2.6561,-2.656,-2.6558,-2.658,-2.6582,-2.6584,0,0,0,0,0,0,0,0,0,0,0,0,0,-2.6526,-2.6498,-2.6574,-2.656,-2.6559,-2.6597,-2.6598,-2.6598,-2.6563,-2.6561,-2.6559,-2.6558,-2.658,-2.6582,-2.6585,-2.6637,0,0,-2.6593,-2.6594,0,0,0,0,0,0,0,0,-2.6524,-2.6528,-2.6562,-2.6561,-2.656,-2.6575,-2.6578,-2.6611,-2.6564,-2.6561,-2.6559,-2.6557,-2.658,-2.6583,-2.6591,-2.6638,-2.6639,-2.6593,-2.6594,-2.6595,-2.6596,0,0,0,0,0,0,0,-2.6522,-2.6527,-2.6583,-2.6562,-2.6561,-2.6551,-2.6553,-2.6584,-2.6581,-2.6561,-2.6559,-2.6562,-2.6579,-2.6589,-2.6591,-2.664,-2.6593,-2.6595,-2.6597,-2.6598,-2.6731,-2.6732,0,0,0,0,0,0,-2.6522,-2.6526,-2.6582,-2.6584,-2.6537,-2.6554,-2.6557,-2.6572,-2.658,-2.658,-2.6564,-2.6561,-2.6585,-2.6588,-2.6592,-2.6654,-2.6595,-2.6598,-2.6599,-2.6729,-2.6731,-2.6733,0,0,0,0,0,0,-2.652,-2.6527,-2.6581,-2.6554,-2.656,-2.6558,-2.6575,-2.6573,-2.6583,-2.6582,-2.6581,-2.6574,-2.6584,-2.6588,-2.6626,-2.6654,-2.6599,-2.6601,-2.6726,-2.6729,-2.6732,-2.6778,0,0,0,0,0,0,-2.6518,-2.6527,-2.6548,-2.6555,-2.6562,-2.6616,-2.6577,-2.6575,-2.6588,-2.6583,-2.6592,-2.6591,-2.6583,-2.6623,-2.6629,-2.6656,-2.6603,-2.6724,-2.6728,-2.6731,-2.6774,-2.6782,-2.6789,0,0,0,0,0,-2.6516,-2.6559,-2.6549,-2.6556,-2.6588,-2.6618,-2.6622,-2.6612,-2.659,-2.661,-2.661,-2.6591,-2.665,-2.6627,-2.6634,-2.6662,-2.6722,-2.6726,-2.6731,-2.6771,-2.6781,-2.6789,0,0,0,0,0,0,-2.6555,-2.656,-2.6549,-2.6596,-2.6607,-2.6612,-2.6637,-2.6623,-2.664,-2.6635,-2.6621,-2.6623,-2.6664,-2.6667,-2.6641,-2.6713,-2.6682,-2.6688,-2.671,-2.672,-2.6727,-2.6725,-2.6606,0,0,0,0,0,-2.6569,-2.6594,-2.6597,-2.6639,-2.6645,-2.664,-2.6653,-2.6644,-2.6655,-2.6659,-2.6661,-2.6671,-2.6692,-2.6706,-2.6725,-2.6774,-2.6775,-2.6797,-2.6805,-2.6811,-2.6816,-2.6842,-2.6851,-2.6748,-2.6748,-2.6748,0,0,-2.6599,-2.6605,-2.6621,-2.6647,-2.6654,-2.6679,-2.6644,-2.6672,-2.6691,-2.6663,-2.6699,-2.6701,-2.6711,-2.6755,-2.6774,-2.6759,-2.6845,-2.6817,-2.6822,-2.6824,-2.6847,-2.6857,-2.6866,-2.6751,-2.675,-2.675,0,0,-2.6665,-2.6673,-2.6708,-2.6716,-2.6728,-2.6725,-2.6733,-2.674,-2.6741,-2.6777,-2.6756,-2.6777,-2.6814,-2.6822,-2.6831,-2.69,-2.6883,-2.6906,-2.6946,-2.6971,-2.6979,-2.6986,-2.701,-2.7019,-2.6912,-2.6912,-2.6912,0,-2.67,-2.6738,-2.6728,-2.6757,-2.6769,-2.6745,-2.678,-2.6788,-2.6806,-2.6814,-2.6796,-2.6841,-2.6846,-2.6891,-2.6908,-2.6916,-2.6924,-2.6905,-2.6979,-2.6986,-2.6992,-2.7015,-2.7024,-2.6914,-2.6914,-2.6914,-2.6914,0,-2.678,-2.6807,-2.6834,-2.6852,-2.6866,-2.6898,-2.6891,-2.6907,-2.6897,-2.6895,-2.6932,-2.6937,-2.6957,-2.6967,-2.6957,-2.701,-2.7,-2.6981,-2.6949,-2.7005,-2.7026,-2.7035,-2.6918,-2.6917,-2.6917,-2.6916,0,0,-2.6872,-2.6884,-2.6894,-2.6901,-2.6912,-2.6932,-2.6963,-2.6982,-2.6996,-2.7008,-2.7033,-2.7064,-2.7046,-2.7056,-2.7047,-2.7069,-2.7123,-2.7047,-2.7047,-2.706,-2.718,-2.7194,-2.7204,-2.7112,-2.7113,-2.7114,-2.7179,0,-2.6938,-2.6992,-2.6983,-2.7035,-2.7058,-2.7036,-2.7063,-2.7072,-2.7071,-2.709,-2.7089,-2.7111,-2.7086,-2.7092,-2.7113,-2.7112,-2.7146,-2.7107,-2.7133,-2.7134,-2.7131,-2.7216,-2.7231,-2.7291,-2.7187,-2.7189,-2.719,0,-2.7022,-2.7039,-2.7093,-2.71,-2.7109,-2.7133,-2.715,-2.7169,-2.7179,-2.7176,-2.7188,-2.7174,-2.7204,-2.7172,-2.7212,-2.7185,-2.7196,-2.7197,-2.7199,-2.72,-2.7165,-2.7219,-2.7311,-2.7319,-2.7203,-2.7202,-2.7201,0,-2.7083,-2.7118,-2.7155,-2.7162,-2.7171,-2.7189,-2.7193,-2.7201,-2.7213,-2.7228,-2.7235,-2.7253,-2.7262,-2.7276,-2.7267,-2.7245,-2.7308,-2.7276,-2.7307,-2.7307,-2.732,-2.732,-2.7415,-2.7328,-2.7328,-2.7328,-2.7328,0,-2.7157,-2.7191,-2.7182,-2.7205,-2.7242,-2.7231,-2.7267,-2.7269,-2.7276,-2.7298,-2.728,-2.73,-2.7288,-2.7308,-2.7301,-2.7335,-2.7339,-2.7338,-2.7335,-2.7339,-2.7339,-2.7345,-2.734,-2.733,-2.733,-2.7329,-2.7329,0,-2.7231,-2.7227,-2.7266,-2.7271,-2.7273,-2.73,-2.7304,-2.7325,-2.7322,-2.735,-2.7356,-2.7352,-2.7374,-2.7367,-2.739,-2.7386,-2.7428,-2.7421,-2.7425,-2.7423,-2.7454,-2.7451,-2.7555,-2.7568,-2.7474,-2.7475,-2.7476,0,-2.7279,-2.7304,-2.7313,-2.7326,-2.7332,-2.7354,-2.7367,-2.7356,-2.737,-2.7382,-2.7401,-2.7422,-2.7437,-2.7473,-2.7472,-2.749,-2.7482,-2.7518,-2.7485,-2.7487,-2.7482,-2.748,-2.7482,-2.7524,-2.7525,-2.7526,-2.7527,0,-2.7363,-2.736,-2.7379,-2.7397,-2.7412,-2.7426,-2.7438,-2.745,-2.744,-2.7456,-2.7479,-2.7491,-2.7515,-2.7535,-2.7551,-2.7554,-2.7539,-2.7537,-2.7545,-2.7549,-2.755,-2.7549,-2.7443,-2.7535,-2.7534,-2.7533,-2.7533,-2.7533,-2.7425,-2.7446,-2.7455,-2.7477,-2.7485,-2.7496,-2.7515,-2.7516,-2.7534,-2.7554,-2.7546,-2.7572,-2.758,-2.76,-2.7605,-2.7625,-2.7611,-2.7622,-2.7625,-2.7628,-2.7632,-2.7547,-2.7628,-2.7627,-2.7627,-2.7627,-2.7627,0,-2.7507,-2.7512,-2.7532,-2.7549,-2.7566,-2.7551,-2.7563,-2.7578,-2.7601,-2.761,-2.7626,-2.7651,-2.767,-2.7671,-2.7689,-2.7704,-2.7697,-2.7709,-2.7707,-2.7708,-2.7643,-2.7634,-2.7714,-2.7714,-2.7714,-2.7714,-2.7714,-2.7714,-2.7553,-2.7588,-2.7585,-2.7624,-2.7628,-2.7653,-2.7661,-2.7671,-2.7679,-2.7708,-2.7724,-2.7724,-2.773,-2.7748,-2.7764,-2.7764,-2.7771,-2.7785,-2.7782,-2.7721,-2.7713,-2.7704,-2.7696,-2.7787,-2.7787,-2.7845,-2.7846,-2.7846]}]]